Tracking 32936 objects as of 17-Jan-2026
HD Live streaming from Space Station
objects crossing your sky now

DMSP 5D-2 F13 DEB

Track DMSP 5D-2 F13 DEB now!
10-day predictions


NORAD ID: 40449
Int'l Code: 1995-015BB
Perigee: 776.1 km
Apogee: 809.1 km
Inclination: 98.9 °
Period: 100.6 minutes
Semi major axis: 7163 km
RCS: Unknown
Launch date: March 24, 1995
Source: United States (US)
Launch site: AIR FORCE WESTERN TEST RANGE (AFWTR)

Note: This is SATELLITE DEBRIS
Your satellite tracking list
Your tracking list is empty




NASA's NSSDC Master Catalog

Two Line Element Set (TLE):
1 40449U 95015BB  26014.47652789  .00002960  00000-0  11198-2 0  9991
2 40449  98.9273  26.3384 0023006 349.2856  10.7833 14.31880133561584
Source of the keplerian elements: AFSPC